Location: Ailly
(50.0793°N, 1.9944°E)
Time: 22:26:38
(UTC+00:00)

Cosmos 1269 Rocket - Visible Passes

Search period start: 18 April 2026 00:00
Search period end: 28 April 2026 00:00
Orbit: 769 x 774 km, 74.1° (Epoch: 18 April)

Date Brightness Start Highest point End Pass type
(mag) Time Alt. Az. Time Alt. Az. Time Alt. Az.
18 Apr 5.9 20:03:15 10° N 20:06:50 18° NE 20:10:24 10° E visible
18 Apr 3.9 21:44:31 10° NNW 21:49:50 83° ENE 21:50:44 62° SE visible
18 Apr 6.1 23:28:05 10° WNW 23:31:04 16° W 23:31:04 16° W visible
19 Apr 6.1 19:27:52 10° N 19:30:21 13° NE 19:32:49 10° ENE visible
19 Apr 4.3 21:08:33 10° NNW 21:13:45 55° ENE 21:15:31 37° ESE visible
19 Apr 5.5 22:51:17 10° NW 22:55:32 25° W 22:55:51 25° WSW visible
20 Apr 4.9 20:32:40 10° NNW 20:37:34 37° NE 20:40:19 22° ESE visible
20 Apr 4.8 22:14:51 10° NW 22:19:44 39° WSW 22:20:39 36° SW visible
21 Apr 5.4 19:56:52 10° N 20:01:17 26° NE 20:05:08 12° ESE visible
21 Apr 4.3 21:38:38 10° NNW 21:43:51 62° WSW 21:45:29 41° SSW visible
22 Apr 4.0 21:02:33 10° NNW 21:07:52 87° ENE 21:10:20 33° SSE visible
22 Apr 6.1 22:46:15 10° WNW 22:49:14 15° W 22:50:41 14° WSW visible
23 Apr 4.2 20:26:34 10° NNW 20:31:47 57° ENE 20:35:13 21° SE visible
23 Apr 5.7 22:09:22 10° NW 22:13:32 24° W 22:15:34 19° SW visible
24 Apr 4.8 19:50:40 10° NNW 19:55:36 38° ENE 20:00:08 12° ESE visible
24 Apr 5.1 21:32:54 10° NW 21:37:44 37° WSW 21:40:29 22° SSW visible
25 Apr 4.4 20:56:40 10° NNW 21:01:51 59° WSW 21:05:26 20° S visible
26 Apr 4.0 20:20:34 10° NNW 20:25:53 90° WSW 20:30:26 14° SSE visible
26 Apr 6.4 22:04:24 10° WNW 22:07:13 15° W 22:10:02 10° SW visible
27 Apr 4.2 19:44:34 10° NNW 19:49:49 60° ENE 19:55:01 10° SE visible
27 Apr 5.9 21:27:27 10° NW 21:31:32 23° W 21:35:35 10° SSW visible
